Lapse_Rate
7.2 6.5 6.5 6.5 6.5 6.5 6.5 6.5 6.5 6.5 6.5 6.5 6.5 6.5 6.5 6.7 7.1 6.9 7.3 7.5 7.8 8.0 8.6 8.9 8.9 9.0 9.2 9.0 9.0 9.2 9.4 9.5 9.9 9.5 9.5 9.3 9.1 9.4 9.6 9.6 5.9 5.1 4.4 4.7
6.5 6.5 6.5 6.5 6.5 6.5 6.5 6.5 6.5 6.5 6.5 6.5 6.5 6.5 6.5 6.5 6.5 7.1 7.2 7.4 7.7 7.9 8.3 8.5 8.7 8.8 8.9 9.0 9.0 9.2 9.3 9.5 9.8 9.6 9.6 9.5 9.5 9.5 9.5 9.0 6.3 5.2 4.5 4.6
6.5 6.5 6.5 6.5 6.5 6.5 6.5 6.5 6.5 6.5 6.5 6.5 6.5 6.5 6.5 6.5 6.8 7.0 7.3 7.6 7.8 7.7 7.8 8.0 8.3 8.5 8.8 9.0 8.9 9.2 9.4 9.5 9.8 9.5 9.8 9.7 9.7 9.5 9.3 9.2 8.1 5.9 5.5 5.8
6.5 6.5 6.5 6.5 6.5 6.5 6.5 6.5 6.5 6.5 6.5 6.5 6.5 6.5 6.5 6.5 6.5 6.5 6.9 7.2 7.4 7.8 8.1 8.3 8.3 8.5 8.6 8.8 9.0 9.1 9.3 9.5 9.7 9.6 9.5 9.3 9.1 8.9 9.3 9.4 9.5 7.7 6.5 6.7
6.5 6.5 6.5 6.5 6.5 6.5 6.5 6.5 6.5 6.5 6.5 6.5 6.5 6.5 6.5 6.5 6.5 6.5 6.5 7.1 7.5 7.9 8.1 8.2 8.5 8.7 8.9 9.0 8.9 8.1 8.6 9.0 9.1 9.4 9.4 9.6 9.2 9.4 9.6 9.6 9.3 9.1 8.5 7.2
6.5 7.1 6.5 6.5 6.5 6.5 6.5 6.5 6.5 6.5 6.5 6.5 6.5 6.5 6.5 6.5 6.5 6.5 6.5 7.1 7.4 7.7 8.0 8.3 8.6 8.7 8.8 8.9 8.5 7.6 8.2 8.4 8.4 8.5 8.8 9.2 9.0 9.2 9.2 9.2 9.3 9.4 9.6 9.0
6.5 6.5 6.5 6.6 6.5 6.5 6.5 6.5 6.5 6.5 6.5 6.5 6.5 6.5 6.5 6.5 6.5 6.5 6.5 7.0 7.5 7.8 7.9 8.0 8.2 8.5 8.6 8.7 7.7 7.3 7.6 8.0 7.8 7.7 7.8 8.5 8.8 8.9 9.1 9.2 9.3 9.1 9.3 9.2
6.5 6.5 6.5 6.5 6.5 6.5 6.5 6.5 6.5 6.5 6.5 6.5 6.5 6.5 6.5 6.5 6.5 7.1 7.2 7.3 7.6 7.7 8.0 8.1 8.2 8.4 8.6 8.7 8.7 7.6 8.0 7.7 7.3 6.9 7.2 8.2 8.6 8.7 9.1 9.4 9.3 9.1 8.3 6.9
6.5 6.5 6.5 6.5 6.5 6.5 6.5 6.5 6.5 6.5 6.5 6.5 6.5 6.5 6.5 6.5 6.5 6.5 6.8 7.2 7.2 7.5 7.9 8.2 8.4 8.5 8.6 8.7 8.8 7.9 7.7 7.4 7.0 7.2 6.5 6.3 6.3 7.2 6.8 7.5 7.6 6.9 4.4 3.3
6.5 6.5 6.5 6.5 6.6 6.6 6.5 6.5 6.5 6.5 6.5 6.5 6.5 6.5 6.5 6.5 6.5 6.5 6.5 6.7 7.2 7.7 7.9 8.1 8.3 8.5 8.7 8.9 9.0 8.8 8.0 7.5 6.8 5.7 5.2 5.3 5.2 5.4 5.2 5.3 5.9 5.5 4.2 3.5
6.5 6.5 6.5 6.5 6.5 6.5 6.5 6.5 6.5 6.5 6.5 6.5 6.5 6.5 6.5 6.5 6.5 6.5 6.5 7.0 7.3 7.5 7.8 8.1 8.4 8.6 8.8 9.0 8.8 7.8 7.4 6.0 5.3 4.9 4.7 4.5 5.1 5.6 5.6 5.9 6.1 5.7 5.8 4.1
6.5 6.5 6.5 6.5 6.5 6.5 6.5 6.5 6.5 6.5 6.5 6.5 6.5 6.5 6.5 6.5 6.5 6.5 6.7 7.2 7.5 7.8 8.0 8.2 8.4 8.6 8.7 8.8 8.7 8.1 7.0 6.0 5.8 5.4 4.6 4.6 5.2 5.7 5.8 5.6 5.2 5.0 4.7 3.3
6.5 6.5 6.5 6.5 6.5 6.5 6.5 6.5 6.5 6.5 6.5 6.5 6.5 6.5 6.5 6.5 6.5 7.0 6.9 7.2 7.5 7.7 8.0 8.1 8.3 8.3 8.5 8.7 8.6 8.1 7.8 7.4 6.7 5.8 4.9 4.7 4.7 4.6 4.4 4.5 4.5 4.6 3.5 3.0
6.8 6.5 6.5 6.5 6.5 6.5 6.5 6.5 6.5 6.5 6.5 6.5 6.5 6.5 6.5 6.5 6.5 6.6 6.9 7.3 7.5 7.7 7.9 8.1 8.1 5.9 8.5 8.6 8.5 8.4 8.2 7.7 7.0 6.3 5.5 5.1 4.7 4.5 4.0 3.9 4.0 3.5 3.7 3.5
6.5 6.5 6.5 6.5 6.5 6.5 6.5 6.5 6.5 6.5 6.5 6.5 6.5 6.5 6.5 6.5 6.5 6.6 7.2 7.3 7.4 7.6 7.8 8.0 8.1 8.1 8.5 8.5 8.7 8.7 7.2 7.0 6.6 6.4 5.8 4.9 4.2 3.3 3.0 3.2 3.7 3.6 3.4 4.6
6.5 6.5 6.5 6.5 6.5 6.5 6.5 6.5 6.5 6.5 6.5 6.5 6.5 6.5 6.5 6.7 6.9 7.0 7.1 7.2 7.2 7.5 7.7 7.9 8.2 8.3 8.4 8.6 8.6 8.9 8.5 7.0 6.2 4.8 3.6 3.0 2.4 2.8 3.4 3.8 4.1 4.8 5.4 6.3
6.5 6.5 6.5 6.5 6.5 6.5 6.5 6.5 6.5 6.5 6.5 6.5 6.5 6.5 6.5 6.5 6.5 6.6 7.0 7.2 7.2 7.5 7.7 7.9 8.1 8.3 8.3 8.7 8.7 8.7 7.8 5.5 3.8 3.4 2.7 3.1 3.3 3.6 3.7 3.9 4.5 5.4 6.3 7.0
6.5 6.5 6.5 6.5 6.5 6.5 6.5 6.5 6.5 6.5 6.5 6.5 6.5 6.5 6.5 6.5 6.9 7.4 7.6 7.5 7.4 7.7 7.9 8.1 8.3 8.5 8.7 8.7 8.9 8.7 7.8 6.0 4.0 2.8 2.4 3.2 3.7 4.1 4.6 5.1 6.3 8.0 8.6 9.3
6.5 6.5 6.5 6.5 6.5 6.5 6.5 6.5 6.5 6.5 6.5 6.5 6.5 6.5 6.5 7.0 7.1 7.0 7.9 8.0 7.9 8.0 8.3 8.5 8.8 8.8 8.9 9.0 8.9 8.6 5.6 5.2 2.9 2.6 2.7 3.6 4.2 4.9 5.9 8.0 7.9 7.1 8.1 8.4
6.5 6.5 6.5 6.5 6.5 6.5 6.5 6.5 6.9 6.5 6.5 6.5 6.5 6.5 6.5 6.7 6.5 6.5 7.7 8.2 8.2 8.4 8.6 8.7 8.9 9.0 8.9 8.9 8.9 6.6 3.8 3.7 3.2 2.7 2.9 3.1 4.6 4.5 5.6 6.5 4.9 5.4 7.7 9.5
6.5 6.5 6.5 6.5 6.5 6.5 6.5 6.5 6.9 6.5 6.5 6.6 6.8 6.8 6.7 6.5 6.8 7.8 8.0 8.1 8.5 8.6 8.6 8.7 8.9 8.8 8.9 9.0 8.8 6.2 3.8 3.0 3.4 3.4 2.8 3.7 4.3 4.0 4.0 4.3 5.1 7.8 9.5 9.4
6.5 6.5 6.5 6.5 6.5 6.5 6.8 6.7 6.5 6.5 7.0 7.0 7.2 7.2 7.0 7.3 7.6 7.8 8.0 8.1 8.3 8.4 8.6 8.8 8.7 8.8 9.0 8.8 7.0 4.3 3.5 2.9 3.1 3.3 3.4 4.2 4.1 4.0 4.1 4.8 6.3 9.4 9.3 9.1
6.5 6.5 6.5 6.5 6.5 6.5 7.0 6.8 7.5 7.1 7.3 7.3 7.3 7.6 7.6 7.5 7.6 7.9 7.9 8.1 8.3 8.5 8.7 8.8 8.7 8.7 8.8 8.6 6.5 4.2 3.1 2.9 3.1 3.8 4.1 4.4 4.3 4.6 4.8 5.4 7.0 9.5 9.3 9.1
6.5 6.6 6.5 6.5 6.5 6.5 7.0 7.6 7.6 7.2 7.7 7.7 7.8 7.8 7.9 7.6 7.8 7.9 8.1 8.2 8.3 8.5 8.5 8.7 8.7 8.6 8.5 8.6 7.7 4.7 3.8 4.1 4.2 4.8 5.1 5.1 5.4 5.3 5.3 6.0 8.0 9.1 9.0 8.8
6.5 6.5 6.5 6.5 6.5 6.8 7.1 7.6 7.6 7.7 7.9 8.0 8.1 8.0 7.9 8.0 7.9 8.0 8.1 8.2 8.4 8.5 8.7 8.7 8.6 8.5 8.3 7.7 6.7 4.0 4.6 5.4 6.3 6.3 5.8 5.7 5.4 5.3 5.5 7.6 8.5 8.6 8.2 7.7
6.7 6.5 6.5 6.5 6.8 6.8 6.9 7.6 8.0 7.8 7.8 8.0 8.0 7.9 8.2 8.2 8.1 8.2 8.2 8.4 8.5 8.5 8.7 8.5 8.4 6.8 6.1 6.5 5.6 4.1 5.3 6.4 7.2 7.0 6.4 6.3 5.5 6.4 8.2 9.2 9.0 8.6 7.9 7.8
Wind_Speed
17 13 18 20 20 20 21 23 24 22 19 21 24 25 22 21 24 23 20 18 19 20 19 19 17 15 17 17 20 21 20 18 14 13 12 11 11 10 9 7 13 11 11 10
18 21 19 19 20 19 20 24 25 24 21 21 24 29 24 21 22 24 23 23 22 22 21 19 18 14 18 19 22 22 23 22 17 14 12 11 11 10 9 8 11 12 12 11
23 21 10 10 17 18 22 22 24 27 22 24 23 34 27 31 24 3 8 10 12 11 12 8 11 14 16 19 22 21 23 23 20 19 13 12 11 10 10 10 9 9 11 9
16 17 21 23 23 19 28 18 23 24 21 17 14 23 22 20 12 16 12 4 1 5 8 11 13 11 14 15 17 18 21 22 21 20 17 18 14 14 12 11 10 9 12 9
5 4 10 15 16 16 29 20 23 23 22 22 33 17 31 20 24 23 14 7 3 4 6 8 11 14 14 15 14 14 15 16 16 17 16 14 15 11 11 11 14 12 9 11
18 15 12 15 14 11 16 16 19 19 18 17 39 17 23 20 20 19 13 4 1 1 3 5 6 8 5 10 10 12 14 14 13 13 13 16 15 14 13 13 11 10 9 8
16 19 14 13 16 14 12 12 10 14 15 21 27 20 18 1 6 4 5 2 0 3 4 3 4 6 4 6 6 4 10 12 11 9 9 11 12 13 17 16 11 12 10 9
17 20 16 4 8 15 16 15 14 17 18 21 20 23 15 9 8 7 3 2 2 6 5 4 3 2 2 3 6 5 5 10 8 7 6 10 10 8 10 12 10 8 8 8
14 20 3 7 8 8 11 19 23 24 26 22 25 32 9 10 10 9 8 4 2 3 4 6 7 5 2 3 7 9 8 6 7 9 6 9 10 12 9 11 9 8 11 10
11 15 18 14 8 16 15 14 9 8 10 28 23 28 23 18 17 8 9 6 3 3 2 3 5 5 3 2 2 6 9 10 7 9 10 10 12 11 12 11 12 11 11 13
10 11 11 15 16 20 17 9 3 4 6 7 8 16 10 9 5 5 4 3 2 2 1 2 3 3 3 3 7 8 9 12 11 10 10 12 12 13 13 12 12 11 11 14
17 18 17 23 21 23 25 21 21 8 4 7 7 9 8 2 7 6 4 4 4 3 2 2 2 2 4 5 7 8 9 10 9 10 12 13 13 13 12 12 13 12 12 12
11 8 16 23 21 25 30 30 26 24 10 19 15 11 10 12 10 13 13 8 8 7 5 3 2 1 4 5 7 9 10 11 12 12 14 13 13 13 13 13 13 12 14 13
9 16 23 20 24 24 27 27 20 13 10 10 9 10 13 13 14 13 14 12 11 11 10 7 5 3 6 7 9 10 10 12 13 13 13 14 13 13 12 12 12 13 13 13
7 17 23 26 30 29 32 33 29 21 22 14 21 22 24 19 13 12 18 18 13 12 10 9 9 9 9 11 11 13 14 12 13 14 14 12 12 12 12 11 11 12 13 12
18 17 19 24 25 29 32 33 29 27 28 27 25 27 24 20 13 16 19 17 12 10 10 6 9 9 11 12 12 15 15 13 10 11 10 9 11 11 10 11 11 13 13 12
20 17 19 23 23 25 17 30 29 24 25 26 24 25 22 20 18 11 13 10 9 6 3 4 4 8 12 13 13 14 14 14 13 12 13 12 11 12 11 11 11 12 13 13
22 23 18 19 20 24 24 17 28 28 25 24 24 22 20 19 9 13 6 7 7 1 3 3 3 4 6 14 13 15 15 15 13 12 14 12 13 12 12 14 14 13 12 12
22 21 18 18 18 22 29 22 20 16 20 19 19 14 17 13 6 10 9 4 3 2 5 4 5 5 7 9 15 17 14 13 12 12 14 14 15 15 14 14 14 12 11 10
17 18 14 18 22 23 22 24 12 30 18 18 19 18 16 10 7 2 8 5 2 2 4 6 7 7 7 9 8 16 14 13 13 14 13 13 14 15 13 12 13 12 12 12
9 6 16 18 18 19 24 26 17 13 10 5 9 11 11 8 3 13 5 3 4 3 4 6 6 6 7 7 4 13 13 12 10 12 11 12 13 13 13 12 10 12 11 10
13 11 11 10 13 20 16 20 22 10 9 3 12 6 6 7 7 3 2 1 2 4 3 3 4 5 4 3 4 7 8 10 13 13 14 14 14 11 11 14 13 13 12 12
5 2 6 8 7 6 12 15 10 13 19 7 10 6 2 8 8 8 5 2 2 3 4 3 3 2 2 4 6 8 8 12 13 13 13 13 13 13 13 13 12 10 11 9
12 11 10 14 12 16 10 17 11 11 15 11 12 9 8 8 8 7 6 4 4 3 3 1 3 4 5 6 8 10 12 13 14 14 15 13 13 13 12 10 8 8 8 8
14 14 15 18 19 15 9 17 10 12 13 13 9 8 9 9 7 6 5 5 5 3 3 3 3 4 5 8 10 12 11 14 14 14 13 13 11 12 11 9 7 7 7 8
13 15 9 12 16 14 13 9 7 12 15 10 13 10 8 8 9 8 6 5 5 5 4 3 5 6 8 9 11 12 12 11 13 13 11 10 10 10 10 10 8 9 9 7
Wind_Direction
206 229 227 233 238 247 269 278 274 274 281 279 273 270 268 268 266 264 263 256 251 250 247 240 237 214 216 193 185 182 188 186 187 179 178 174 177 164 165 155 149 155 152 152
252 242 254 272 270 264 265 268 265 271 269 268 276 273 267 263 269 265 264 262 261 253 248 240 226 198 205 203 190 187 192 188 190 185 183 178 171 168 158 146 161 155 157 159
254 265 230 281 270 264 257 258 274 279 287 282 287 276 269 258 268 293 259 264 279 343 337 298 228 193 197 208 193 194 195 192 192 188 181 174 165 162 158 161 160 159 156 154
267 279 273 269 255 252 268 263 271 274 272 269 269 279 273 288 230 208 210 127 18 352 338 328 313 211 198 209 203 197 197 195 194 192 185 182 177 174 173 168 161 152 147 141
239 261 287 276 271 275 271 283 278 274 275 287 266 248 277 263 258 260 170 146 134 19 353 327 309 292 191 202 208 189 196 197 192 198 193 182 183 177 166 165 149 146 139 133
262 271 271 266 282 277 289 281 273 273 257 256 257 251 262 264 263 227 121 154 130 89 18 333 318 311 254 193 199 184 192 186 194 201 201 182 187 181 167 155 158 151 143 132
256 236 234 227 270 253 248 257 261 247 234 242 263 263 241 125 78 31 118 162 38 53 50 13 22 336 313 204 138 136 179 186 190 191 192 183 199 172 166 160 160 151 146 135
276 267 266 82 258 280 274 241 245 270 264 269 255 243 265 110 129 133 138 137 100 53 26 31 41 60 294 252 169 172 185 176 166 158 195 181 210 148 146 159 139 134 127 106
296 277 23 298 315 296 278 245 263 270 263 269 265 275 151 172 171 173 166 200 90 71 32 22 26 23 333 240 215 167 188 154 147 162 141 126 128 130 144 130 131 136 116 118
280 288 278 278 261 264 254 336 284 243 260 258 251 254 260 213 186 187 213 200 158 113 94 43 26 21 347 306 199 158 165 153 127 109 126 128 126 128 127 123 123 122 130 117
291 268 271 283 274 273 265 232 308 302 287 295 272 257 10 74 74 302 275 172 281 241 157 58 62 55 72 76 79 70 92 105 113 122 121 118 123 121 120 119 113 127 119 118
293 296 282 278 283 290 292 269 267 269 270 271 296 282 342 118 160 251 260 302 331 321 321 355 33 76 86 101 117 116 119 128 132 137 127 126 125 127 123 125 122 127 118 110
341 281 279 273 266 255 251 257 255 262 257 255 259 258 351 3 331 306 279 267 283 266 252 232 196 150 125 136 136 130 144 144 147 135 129 125 123 121 120 122 126 125 122 125
292 276 267 267 274 285 284 287 298 262 249 251 248 306 300 282 279 257 278 270 266 250 235 228 217 203 170 169 167 157 155 154 152 142 139 134 134 133 135 136 133 128 132 130
274 272 273 270 273 275 281 269 267 249 260 258 274 270 271 274 254 267 284 281 280 276 248 227 220 181 208 173 176 171 163 163 157 154 147 140 133 128 129 130 131 134 139 138
269 273 281 284 281 274 271 259 262 273 272 273 272 278 281 278 260 209 238 257 262 268 276 255 208 198 210 191 182 180 171 163 146 137 127 126 130 132 135 132 137 135 132 136
263 268 277 273 285 281 290 259 253 253 261 267 275 283 284 278 276 245 262 270 254 259 139 306 282 207 193 210 185 184 178 169 158 150 145 147 142 136 133 134 139 142 148 144
262 263 261 265 275 270 273 293 246 249 257 258 262 273 276 274 270 265 212 262 255 217 25 290 294 294 256 188 200 180 172 179 167 153 150 149 146 142 145 151 155 153 143 149
237 242 250 255 256 280 289 279 261 261 274 264 275 276 272 265 240 253 227 115 46 339 311 337 342 318 288 275 189 176 169 172 159 163 158 157 155 151 157 154 150 141 142 150
235 249 236 240 255 259 267 286 339 314 250 267 248 258 252 253 230 259 35 122 107 25 357 348 344 326 318 285 204 171 163 167 174 168 160 153 155 145 153 141 141 151 164 162
288 251 233 230 244 256 263 274 284 278 256 299 295 246 247 226 205 130 161 112 73 53 21 2 356 345 12 355 131 165 165 168 155 148 143 140 135 138 141 138 148 159 155 152
302 287 245 231 240 258 314 272 265 239 348 310 286 225 211 205 123 169 157 78 7 336 16 21 3 4 34 45 124 137 142 129 133 139 139 139 142 142 140 147 158 160 156 153
293 348 305 289 290 216 245 281 303 307 311 287 297 288 202 219 206 214 221 222 303 314 335 47 346 108 119 142 141 138 132 134 137 140 140 142 139 146 147 154 156 159 163 158
304 319 296 302 295 315 356 296 274 258 297 250 251 277 217 233 220 228 230 249 261 253 268 211 206 194 182 164 155 145 145 147 145 143 146 146 148 146 148 150 165 162 161 160
289 295 288 284 287 311 272 262 323 297 273 288 249 247 244 239 241 252 268 269 282 297 266 195 192 196 180 157 153 148 149 156 157 150 148 147 147 147 150 159 162 160 157 172
273 271 275 276 298 307 299 332 320 326 318 292 286 250 250 246 253 258 266 275 284 289 286 185 162 176 182 169 156 149 161 169 160 153 153 152 153 154 163 157 145 119 119 112